Change the Weather History Date:

Thursday, December 1, 2011

  Actual Average Record
Temperature  
Mean Temperature 17 °F -  
Max Temperature 28 °F 31 °F 51 °F (2003)
Min Temperature 5 °F 6 °F -7 °F (1991)
Degree Days  
Heating Degree Days 48 46  
Month to date heating degree days 48 46  
Since 1 July heating degree days 3217 3451  
Cooling Degree Days 0 0  
Month to date cooling degree days 0 0  
Year to date cooling degree days 0 0  
Moisture  
Dew Point 12 °F    
Average Humidity 73    
Maximum Humidity 100    
Minimum Humidity 46    
Precipitation  
Precipitation T in 0.02 in 0.70 in (2007)
Month to date precipitation T 0.02  
Year to date precipitation 14.53 11.72  
Sea Level Pressure  
Sea Level Pressure 30.09 in    
Wind  
Wind Speed 12 mph (SSW)    
Max Wind Speed 28 mph    
Max Gust Speed 33 mph    
Visibility 10 miles    
Events Snow    
T = Trace of Precipitation, MM = Missing Value Source: NWS Daily Summary

Daily Weather History Graph

Daily Weather History Graph

Search for Another Location

Airport or City:

Trip Planner

Search our weather history database for the weather conditions in past years. The results will help you decide how hot, cold, wet, or windy it might be!

Date:

Astronomy

Dec. 01, 2011 Rise Set
Actual Time 7:05 AM MST 4:42 PM MST
Civil Twilight 6:35 AM MST 5:12 PM MST
Nautical Twilight 6:02 AM MST 5:45 PM MST
Astronomical Twilight 5:30 AM MST 6:17 PM MST
Moon 11:53 AM MST 11:42 PM MST
Length of Visible Light 10h 36m
Length of Day
9h 37m
Waxing Crescent, 44% of the Moon is Illuminated
Dec 1
Waxing Crescent
Dec 2
First Quarter
Dec 10
Full
Dec 17
Last Quarter
Dec 24
New

Hourly Weather History & Observations

Time (MST) Temp. Windchill Dew Point Humidity Pressure Visibility Wind Dir Wind Speed Gust Speed Precip Events Conditions
12:53 AM 26.1 °F 16.2 °F 12.0 °F 55% 29.72 in 10.0 mi South 10.4 mph 19.6 mph N/A   Mostly Cloudy
1:53 AM 25.0 °F 14.8 °F 12.9 °F 60% 29.73 in 10.0 mi South 10.4 mph - N/A   Scattered Clouds
2:53 AM 25.0 °F 15.5 °F 12.9 °F 60% 29.78 in 10.0 mi SSW 9.2 mph - N/A   Overcast
3:53 AM 24.1 °F 12.5 °F 14.0 °F 65% 29.81 in 10.0 mi SW 12.7 mph - N/A   Overcast
4:53 AM 19.9 °F 5.2 °F 19.0 °F 96% 29.90 in 9.0 mi SW 17.3 mph - N/A   Overcast
5:03 AM 19.4 °F 6.0 °F 19.4 °F 100% 30.03 in 10.0 mi SW 13.8 mph - N/A   Overcast
5:53 AM 19.9 °F 7.3 °F 19.0 °F 96% 29.96 in 10.0 mi SSW 12.7 mph - N/A   Overcast
6:53 AM 19.0 °F 6.1 °F 18.0 °F 96% 30.01 in 9.0 mi South 12.7 mph 20.7 mph 0.00 in   Overcast
7:53 AM 18.0 °F 6.1 °F 16.0 °F 92% 30.07 in 10.0 mi SSW 10.4 mph - 0.00 in   Overcast
8:10 AM 17.6 °F 3.2 °F 15.8 °F 93% 30.12 in 10.0 mi SSW 15.0 mph - N/A   Overcast
8:53 AM 17.1 °F 3.6 °F 15.1 °F 92% 30.09 in 9.0 mi SSW 12.7 mph 19.6 mph 0.00 in   Overcast
9:53 AM 17.1 °F 3.0 °F 12.9 °F 84% 30.14 in 10.0 mi SSW 13.8 mph - N/A   Overcast
10:53 AM 19.0 °F 3.2 °F 12.9 °F 77% 30.12 in 10.0 mi SSW 19.6 mph 25.3 mph N/A   Overcast
11:53 AM 19.9 °F 3.2 °F 12.9 °F 74% 30.09 in 10.0 mi SW 23.0 mph 28.8 mph N/A   Overcast
12:53 PM 18.0 °F 0.6 °F 12.9 °F 81% 30.10 in 10.0 mi SW 23.0 mph 28.8 mph N/A   Overcast
1:53 PM 18.0 °F 3.1 °F 12.0 °F 78% 30.11 in 10.0 mi SW 16.1 mph 24.2 mph N/A   Mostly Cloudy
2:53 PM 18.0 °F 3.1 °F 10.9 °F 74% 30.12 in 10.0 mi SW 16.1 mph 23.0 mph N/A   Clear
3:36 PM 15.8 °F 0.3 °F 8.6 °F 73% 30.18 in 10.0 mi SW 16.1 mph - N/A   Mostly Cloudy
3:53 PM 16.0 °F 2.3 °F 9.0 °F 74% 30.16 in 10.0 mi SW 12.7 mph - N/A   Mostly Cloudy
4:53 PM 14.0 °F 1.2 °F 8.1 °F 77% 30.22 in 10.0 mi SW 10.4 mph - N/A   Overcast
5:53 PM 14.0 °F 2.9 °F 10.0 °F 84% 30.24 in 10.0 mi SW 8.1 mph - N/A   Overcast
6:53 PM 14.0 °F 0.5 °F 10.0 °F 84% 30.25 in 6.0 mi SW 11.5 mph - 0.00 in Snow Light Snow
7:53 PM 12.0 °F 1.5 °F 9.0 °F 88% 30.29 in 10.0 mi SW 6.9 mph - 0.00 in   Overcast
8:53 PM 9.0 °F 2.4 °F 5.0 °F 84% 30.31 in 10.0 mi SE 3.5 mph - 0.00 in   Overcast
9:53 PM 8.1 °F 1.4 °F 3.9 °F 83% 30.30 in 10.0 mi SSE 3.5 mph - N/A   Overcast
10:53 PM 7.0 °F - 3.0 °F 84% 30.28 in 10.0 mi Calm Calm - N/A   Overcast
11:53 PM 5.0 °F -2.1 °F 1.9 °F 87% 30.25 in 10.0 mi East 3.5 mph - N/A   Overcast